PNW002 KBOI-KSEA

Flight info

Callsign PNW002
Flight time 1h 9m
Altitude 36000
Route OLAAH PREIS OKINY PDT CHINS5
Aircraft B738/M-SDE2E3FGHIRWXY/LB1

Departure

Time 2026-05-07 18:29
Airport Boise Air Terminal/Gowen Field (KBOI)

Arrival

Time 2026-05-07 19:38
Airport Seattle–Tacoma International Airport (KSEA)
Time Latitude Longitude Altitude Speed Heading
2026-05-07 17:56 43.56738 -116.22121 2860 ft 0 kts 24°
2026-05-07 18:13 43.56737 -116.22122 2860 ft 1 kts 26°
2026-05-07 18:13 43.56723 -116.22126 2861 ft 2 kts 20°
2026-05-07 18:13 43.56710 -116.22136 2861 ft 2 kts 26°
2026-05-07 18:14 43.56696 -116.22144 2861 ft 2 kts 25°
2026-05-07 18:14 43.56684 -116.22155 2861 ft 2 kts 43°
2026-05-07 18:14 43.56674 -116.22171 2861 ft 2 kts 56°
2026-05-07 18:14 43.56667 -116.22189 2861 ft 2 kts 69°
2026-05-07 18:15 43.56662 -116.22208 2861 ft 2 kts 82°
2026-05-07 18:15 43.56662 -116.22230 2860 ft 2 kts 95°
2026-05-07 18:15 43.56665 -116.22250 2860 ft 2 kts 108°
2026-05-07 18:15 43.56668 -116.22261 2860 ft 1 kts 116°
2026-05-07 18:16 43.56670 -116.22267 2860 ft 0 kts 117°
2026-05-07 18:19 43.56670 -116.22266 2860 ft 0 kts 117°
2026-05-07 18:20 43.56669 -116.22264 2860 ft 1 kts 117°
2026-05-07 18:20 43.56657 -116.22235 2860 ft 6 kts 119°
2026-05-07 18:20 43.56626 -116.22166 2861 ft 10 kts 124°
2026-05-07 18:20 43.56579 -116.22059 2862 ft 15 kts 114°
2026-05-07 18:21 43.56537 -116.21918 2863 ft 14 kts 113°
2026-05-07 18:21 43.56498 -116.21798 2865 ft 12 kts 115°
2026-05-07 18:21 43.56461 -116.21691 2865 ft 12 kts 116°
2026-05-07 18:21 43.56426 -116.21596 2866 ft 9 kts 116°
2026-05-07 18:22 43.56402 -116.21523 2868 ft 7 kts 113°
2026-05-07 18:22 43.56391 -116.21487 2869 ft 5 kts 114°
2026-05-07 18:22 43.56358 -116.21395 2870 ft 9 kts 115°
2026-05-07 18:22 43.56330 -116.21313 2872 ft 9 kts 115°
2026-05-07 18:23 43.56301 -116.21228 2872 ft 9 kts 116°
2026-05-07 18:23 43.56272 -116.21146 2872 ft 8 kts 116°
2026-05-07 18:23 43.56249 -116.21079 2873 ft 7 kts 116°
2026-05-07 18:23 43.56227 -116.21019 2873 ft 6 kts 116°
2026-05-07 18:24 43.56210 -116.20970 2873 ft 5 kts 115°
2026-05-07 18:24 43.56192 -116.20915 2874 ft 8 kts 114°
2026-05-07 18:24 43.56157 -116.20859 2875 ft 7 kts 173°
2026-05-07 18:24 43.56102 -116.20889 2873 ft 9 kts 206°
2026-05-07 18:25 43.56040 -116.20931 2872 ft 10 kts 205°
2026-05-07 18:25 43.55989 -116.20963 2872 ft 0 kts 205°
2026-05-07 18:26 43.55987 -116.20965 2872 ft 1 kts 205°
2026-05-07 18:27 43.55946 -116.20990 2871 ft 10 kts 205°
2026-05-07 18:27 43.55913 -116.21059 2869 ft 6 kts 273°
2026-05-07 18:27 43.55915 -116.21069 2869 ft 0 kts 281°
2026-05-07 18:28 43.55933 -116.21147 2869 ft 34 kts 291°
2026-05-07 18:28 43.56139 -116.21743 2863 ft 104 kts 296°
2026-05-07 18:28 43.56543 -116.22918 2852 ft 164 kts 296°
2026-05-07 18:29 43.57021 -116.24436 3350 ft 174 kts 291°
2026-05-07 18:29 43.57447 -116.26032 4011 ft 183 kts 290°
2026-05-07 18:29 43.57909 -116.27702 4529 ft 204 kts 292°
2026-05-07 18:29 43.58536 -116.29717 4848 ft 246 kts 294°
2026-05-07 18:30 43.59222 -116.31861 6088 ft 251 kts 293°
2026-05-07 18:30 43.60033 -116.34007 7072 ft 265 kts 308°
2026-05-07 18:30 43.61457 -116.35568 8249 ft 272 kts 333°
2026-05-07 18:30 43.63232 -116.36409 9224 ft 275 kts 343°
2026-05-07 18:31 43.65087 -116.36986 10183 ft 280 kts 348°
2026-05-07 18:31 43.67077 -116.37245 10936 ft 294 kts 354°
2026-05-07 18:31 43.69155 -116.37334 11789 ft 302 kts 355°
2026-05-07 18:31 43.71230 -116.37382 12678 ft 306 kts 355°
2026-05-07 18:32 43.73359 -116.37487 13626 ft 305 kts 348°
2026-05-07 18:32 43.75349 -116.38359 14497 ft 301 kts 331°
2026-05-07 18:32 43.77121 -116.39833 15330 ft 302 kts 322°
2026-05-07 18:32 43.78699 -116.41736 16186 ft 303 kts 316°
2026-05-07 18:33 43.80251 -116.43701 16919 ft 307 kts 319°
2026-05-07 18:33 43.81933 -116.45499 17729 ft 309 kts 323°
2026-05-07 18:33 43.83729 -116.47163 18472 ft 313 kts 326°
2026-05-07 18:33 43.85566 -116.48756 19189 ft 316 kts 327°
2026-05-07 18:34 43.87452 -116.50368 19965 ft 318 kts 327°
2026-05-07 18:34 43.89332 -116.51981 20613 ft 322 kts 327°
2026-05-07 18:34 43.91224 -116.53612 21320 ft 324 kts 327°
2026-05-07 18:34 43.93131 -116.55260 22001 ft 326 kts 327°
2026-05-07 18:35 43.95070 -116.56938 22628 ft 330 kts 327°
2026-05-07 18:35 43.97010 -116.58619 23258 ft 332 kts 327°
2026-05-07 18:35 43.98994 -116.60339 23912 ft 334 kts 327°
2026-05-07 18:35 44.00945 -116.62032 24546 ft 336 kts 327°
2026-05-07 18:36 44.02946 -116.63774 25083 ft 339 kts 327°
2026-05-07 18:36 44.04949 -116.65519 25646 ft 342 kts 326°
2026-05-07 18:36 44.06966 -116.67274 26149 ft 346 kts 326°
2026-05-07 18:36 44.09001 -116.69043 26680 ft 348 kts 326°
2026-05-07 18:37 44.11068 -116.70843 27214 ft 351 kts 326°
2026-05-07 18:37 44.13090 -116.72665 27714 ft 353 kts 324°
2026-05-07 18:37 44.15147 -116.74597 28268 ft 354 kts 323°
2026-05-07 18:37 44.17175 -116.76551 28748 ft 357 kts 322°
2026-05-07 18:38 44.19137 -116.78667 29233 ft 359 kts 320°
2026-05-07 18:38 44.21053 -116.80897 29666 ft 362 kts 319°
2026-05-07 18:38 44.22984 -116.83182 30157 ft 363 kts 319°
2026-05-07 18:38 44.24922 -116.85463 30623 ft 365 kts 319°
2026-05-07 18:39 44.26877 -116.87745 31042 ft 368 kts 319°
2026-05-07 18:39 44.28834 -116.90020 31459 ft 370 kts 319°
2026-05-07 18:39 44.30826 -116.92328 31869 ft 373 kts 319°
2026-05-07 18:39 44.32833 -116.94655 32325 ft 374 kts 319°
2026-05-07 18:40 44.34827 -116.96965 32707 ft 376 kts 319°
2026-05-07 18:40 44.36846 -116.99304 33079 ft 379 kts 319°
2026-05-07 18:40 44.38880 -117.01662 33552 ft 379 kts 319°
2026-05-07 18:40 44.40905 -117.04012 33869 ft 382 kts 319°
2026-05-07 18:41 44.42946 -117.06381 34316 ft 383 kts 319°
2026-05-07 18:41 44.45003 -117.08767 34794 ft 383 kts 319°
2026-05-07 18:41 44.47046 -117.11140 35128 ft 386 kts 319°
2026-05-07 18:41 44.49123 -117.13556 35591 ft 386 kts 319°
2026-05-07 18:42 44.51184 -117.15958 35941 ft 388 kts 319°
2026-05-07 18:42 44.53289 -117.18411 36079 ft 392 kts 319°
2026-05-07 18:42 44.55368 -117.20840 36075 ft 391 kts 319°
2026-05-07 18:43 44.59493 -117.25663 36076 ft 384 kts 319°
2026-05-07 18:43 44.63580 -117.30454 36078 ft 385 kts 319°
2026-05-07 18:44 44.67697 -117.35286 36081 ft 385 kts 319°
2026-05-07 18:44 44.71797 -117.40106 36084 ft 386 kts 319°
2026-05-07 18:45 44.75914 -117.44957 36091 ft 385 kts 319°
2026-05-07 18:45 44.80017 -117.49801 36102 ft 386 kts 318°
2026-05-07 18:46 44.84111 -117.54646 36105 ft 384 kts 319°
2026-05-07 18:46 44.88226 -117.59521 36105 ft 385 kts 319°
2026-05-07 18:47 44.92327 -117.64387 36105 ft 385 kts 319°
2026-05-07 18:47 44.96388 -117.69215 36106 ft 384 kts 318°
2026-05-07 18:48 45.00488 -117.74099 36105 ft 384 kts 318°
2026-05-07 18:48 45.04563 -117.78966 36104 ft 384 kts 318°
2026-05-07 18:49 45.08631 -117.83830 36102 ft 385 kts 318°
2026-05-07 18:49 45.12730 -117.88738 36099 ft 385 kts 318°
2026-05-07 18:50 45.16613 -117.93919 36091 ft 386 kts 311°
2026-05-07 18:50 45.20000 -117.99841 36086 ft 385 kts 307°
2026-05-07 18:51 45.23239 -118.05885 36087 ft 386 kts 307°
2026-05-07 18:51 45.26466 -118.11911 36087 ft 384 kts 307°
2026-05-07 18:52 45.29717 -118.17976 36097 ft 385 kts 307°
2026-05-07 18:52 45.32932 -118.23989 36099 ft 386 kts 307°
2026-05-07 18:53 45.36183 -118.30067 36102 ft 385 kts 307°
2026-05-07 18:53 45.39429 -118.36154 36100 ft 385 kts 307°
2026-05-07 18:54 45.42659 -118.42225 36092 ft 387 kts 307°
2026-05-07 18:54 45.45886 -118.48315 36081 ft 385 kts 307°
2026-05-07 18:55 45.49106 -118.54392 36085 ft 387 kts 307°
2026-05-07 18:55 45.52338 -118.60506 36066 ft 385 kts 307°
2026-05-07 18:56 45.55562 -118.66617 36062 ft 387 kts 307°
2026-05-07 18:56 45.58772 -118.72712 36046 ft 386 kts 307°
2026-05-07 18:57 45.61994 -118.78850 36043 ft 386 kts 306°
2026-05-07 18:57 45.65198 -118.84965 36049 ft 386 kts 306°
2026-05-07 18:58 45.68431 -118.91152 36046 ft 387 kts 307°
2026-05-07 18:58 45.71716 -118.97228 36045 ft 387 kts 309°
2026-05-07 18:59 45.75215 -119.03059 36038 ft 386 kts 310°
2026-05-07 18:59 45.78719 -119.08892 36029 ft 387 kts 310°
2026-05-07 19:00 45.82213 -119.14766 36029 ft 387 kts 310°
2026-05-07 19:00 45.85686 -119.20637 36028 ft 389 kts 310°
2026-05-07 19:01 45.89172 -119.26553 36021 ft 386 kts 309°
2026-05-07 19:01 45.92619 -119.32420 36018 ft 387 kts 310°
2026-05-07 19:02 45.96097 -119.38354 36016 ft 387 kts 310°
2026-05-07 19:02 45.99552 -119.44263 36009 ft 389 kts 309°
2026-05-07 19:03 46.03022 -119.50208 36003 ft 387 kts 309°
2026-05-07 19:03 46.06467 -119.56123 36002 ft 388 kts 309°
2026-05-07 19:04 46.09918 -119.62063 35996 ft 388 kts 309°
2026-05-07 19:04 46.13405 -119.68076 36007 ft 390 kts 309°
2026-05-07 19:05 46.16884 -119.74086 35993 ft 388 kts 309°
2026-05-07 19:05 46.20338 -119.80074 36003 ft 390 kts 309°
2026-05-07 19:06 46.23782 -119.86054 35999 ft 390 kts 309°
2026-05-07 19:06 46.28953 -119.95055 35999 ft 390 kts 309°
2026-05-07 19:07 46.32424 -120.01113 36005 ft 390 kts 309°
2026-05-07 19:07 46.35877 -120.07150 36008 ft 390 kts 309°
2026-05-07 19:08 46.39325 -120.13194 36012 ft 390 kts 309°
2026-05-07 19:08 46.42780 -120.19265 36014 ft 391 kts 309°
2026-05-07 19:09 46.46220 -120.25324 36029 ft 391 kts 309°
2026-05-07 19:09 46.49670 -120.31413 36029 ft 391 kts 309°
2026-05-07 19:10 46.53105 -120.37492 36026 ft 390 kts 308°
2026-05-07 19:10 46.56557 -120.43612 36032 ft 392 kts 309°
2026-05-07 19:11 46.59829 -120.49957 36021 ft 391 kts 304°
2026-05-07 19:11 46.62898 -120.56532 36029 ft 392 kts 304°
2026-05-07 19:12 46.65958 -120.63055 36035 ft 391 kts 304°
2026-05-07 19:12 46.69022 -120.69542 35636 ft 384 kts 304°
2026-05-07 19:13 46.70537 -120.72744 35105 ft 381 kts 304°
2026-05-07 19:13 46.72035 -120.75907 34430 ft 382 kts 304°
2026-05-07 19:13 46.73555 -120.79120 33734 ft 383 kts 304°
2026-05-07 19:13 46.75065 -120.82313 33026 ft 384 kts 304°
2026-05-07 19:14 46.76582 -120.85520 32253 ft 387 kts 304°
2026-05-07 19:14 46.78088 -120.88711 31465 ft 390 kts 304°
2026-05-07 19:14 46.79630 -120.91982 30886 ft 389 kts 304°
2026-05-07 19:14 46.81170 -120.95252 30365 ft 399 kts 304°
2026-05-07 19:15 46.82752 -120.98611 29753 ft 408 kts 304°
2026-05-07 19:15 46.84360 -121.02032 29112 ft 407 kts 304°
2026-05-07 19:15 46.85961 -121.05443 28478 ft 404 kts 304°
2026-05-07 19:15 46.87539 -121.08807 27856 ft 401 kts 305°
2026-05-07 19:16 46.89091 -121.12121 27234 ft 399 kts 304°
2026-05-07 19:16 46.90644 -121.15440 26618 ft 396 kts 304°
2026-05-07 19:16 46.92204 -121.18778 25983 ft 393 kts 305°
2026-05-07 19:16 46.93734 -121.22050 25374 ft 391 kts 304°
2026-05-07 19:17 46.95255 -121.25309 24755 ft 389 kts 305°
2026-05-07 19:17 46.96764 -121.28551 24143 ft 387 kts 305°
2026-05-07 19:17 46.98266 -121.31783 23537 ft 385 kts 304°
2026-05-07 19:17 46.99767 -121.35017 22927 ft 383 kts 304°
2026-05-07 19:18 47.01249 -121.38213 22323 ft 382 kts 305°
2026-05-07 19:18 47.02743 -121.41438 21713 ft 380 kts 305°
2026-05-07 19:18 47.04232 -121.44653 21102 ft 379 kts 305°
2026-05-07 19:18 47.05695 -121.47817 20494 ft 378 kts 305°
2026-05-07 19:19 47.07166 -121.51005 19986 ft 373 kts 305°
2026-05-07 19:19 47.08586 -121.54085 19722 ft 364 kts 305°
2026-05-07 19:19 47.10007 -121.57169 19145 ft 362 kts 305°
2026-05-07 19:19 47.11403 -121.60202 18579 ft 362 kts 305°
2026-05-07 19:20 47.12832 -121.63312 18010 ft 360 kts 305°
2026-05-07 19:20 47.14223 -121.66340 17486 ft 358 kts 304°
2026-05-07 19:20 47.15615 -121.69373 17022 ft 357 kts 304°
2026-05-07 19:20 47.16984 -121.72360 16440 ft 355 kts 304°
2026-05-07 19:21 47.18352 -121.75347 15882 ft 353 kts 304°
2026-05-07 19:21 47.19712 -121.78324 15369 ft 351 kts 304°
2026-05-07 19:21 47.21067 -121.81293 14978 ft 345 kts 304°
2026-05-07 19:21 47.22372 -121.84156 14917 ft 329 kts 304°
2026-05-07 19:22 47.23622 -121.86900 14887 ft 321 kts 304°
2026-05-07 19:22 47.24867 -121.89629 14918 ft 327 kts 304°
2026-05-07 19:22 47.26150 -121.92449 14906 ft 331 kts 304°
2026-05-07 19:22 47.27436 -121.95274 14760 ft 331 kts 304°
2026-05-07 19:23 47.28696 -121.98051 14395 ft 328 kts 304°
2026-05-07 19:23 47.29963 -122.00845 13897 ft 327 kts 304°
2026-05-07 19:23 47.31215 -122.03603 13425 ft 326 kts 304°
2026-05-07 19:23 47.32466 -122.06359 12922 ft 325 kts 304°
2026-05-07 19:24 47.33722 -122.09133 12422 ft 324 kts 304°
2026-05-07 19:24 47.34960 -122.11871 12050 ft 319 kts 304°
2026-05-07 19:24 47.36165 -122.14528 11950 ft 305 kts 306°
2026-05-07 19:24 47.37621 -122.16715 11909 ft 291 kts 327°
2026-05-07 19:25 47.39478 -122.17792 11692 ft 291 kts 352°
2026-05-07 19:25 47.41508 -122.17605 11464 ft 293 kts 13°
2026-05-07 19:25 47.43460 -122.16747 11229 ft 293 kts 15°
2026-05-07 19:25 47.45409 -122.16019 10983 ft 291 kts
2026-05-07 19:26 47.47424 -122.15627 10735 ft 289 kts
2026-05-07 19:26 47.49415 -122.15513 10491 ft 288 kts 360°
2026-05-07 19:26 47.51424 -122.15540 10240 ft 287 kts 358°
2026-05-07 19:26 47.53412 -122.15623 9997 ft 286 kts 357°
2026-05-07 19:27 47.55416 -122.15728 9751 ft 285 kts 357°
2026-05-07 19:27 47.57391 -122.15837 9504 ft 284 kts 357°
2026-05-07 19:27 47.59381 -122.15949 9257 ft 283 kts 357°
2026-05-07 19:27 47.61346 -122.16060 9012 ft 281 kts 357°
2026-05-07 19:28 47.63276 -122.16169 8768 ft 279 kts 357°
2026-05-07 19:28 47.65226 -122.16434 8517 ft 278 kts 350°
2026-05-07 19:28 47.67139 -122.16788 8278 ft 278 kts 355°
2026-05-07 19:28 47.69067 -122.16936 8033 ft 276 kts 358°
2026-05-07 19:29 47.70976 -122.17037 7782 ft 274 kts 358°
2026-05-07 19:29 47.72866 -122.17138 7535 ft 272 kts 358°
2026-05-07 19:29 47.74770 -122.17244 7283 ft 271 kts 358°
2026-05-07 19:29 47.76654 -122.17348 7036 ft 271 kts 358°
2026-05-07 19:30 47.78512 -122.17617 6783 ft 269 kts 345°
2026-05-07 19:30 47.80141 -122.18900 6535 ft 269 kts 317°
2026-05-07 19:30 47.81191 -122.21204 6291 ft 271 kts 290°
2026-05-07 19:30 47.81525 -122.23946 6056 ft 270 kts 274°
2026-05-07 19:31 47.81538 -122.26715 5959 ft 267 kts 269°
2026-05-07 19:31 47.81467 -122.29476 5948 ft 269 kts 269°
2026-05-07 19:31 47.81214 -122.32218 5935 ft 272 kts 252°
2026-05-07 19:31 47.80252 -122.34657 5946 ft 274 kts 226°
2026-05-07 19:32 47.78681 -122.36204 5942 ft 276 kts 200°
2026-05-07 19:32 47.76775 -122.36576 5776 ft 280 kts 174°
2026-05-07 19:32 47.74890 -122.35901 5584 ft 275 kts 161°
2026-05-07 19:32 47.73196 -122.34634 5375 ft 273 kts 149°
2026-05-07 19:33 47.71498 -122.33410 5175 ft 272 kts 160°
2026-05-07 19:33 47.69735 -122.32388 5071 ft 269 kts 156°
2026-05-07 19:33 47.68010 -122.31472 4803 ft 260 kts 167°
2026-05-07 19:33 47.66240 -122.31342 4364 ft 253 kts 186°
2026-05-07 19:34 47.64546 -122.31589 4052 ft 236 kts 182°
2026-05-07 19:34 47.62937 -122.31612 3659 ft 224 kts 180°
2026-05-07 19:34 47.61425 -122.31637 3362 ft 212 kts 180°
2026-05-07 19:34 47.59981 -122.31655 3073 ft 203 kts 180°
2026-05-07 19:35 47.58601 -122.31666 2792 ft 196 kts 180°
2026-05-07 19:35 47.57277 -122.31677 2527 ft 181 kts 180°
2026-05-07 19:35 47.56036 -122.31688 2291 ft 176 kts 180°
2026-05-07 19:35 47.54806 -122.31699 2046 ft 177 kts 180°
2026-05-07 19:36 47.53621 -122.31709 1797 ft 166 kts 180°
2026-05-07 19:36 47.52476 -122.31717 1582 ft 160 kts 180°
2026-05-07 19:36 47.51397 -122.31727 1369 ft 151 kts 180°
2026-05-07 19:36 47.50362 -122.31737 1173 ft 148 kts 180°
2026-05-07 19:37 47.49326 -122.31747 970 ft 149 kts 181°
2026-05-07 19:37 47.48293 -122.31757 771 ft 147 kts 181°
2026-05-07 19:37 47.47282 -122.31770 576 ft 146 kts 181°
2026-05-07 19:37 47.46253 -122.31774 381 ft 146 kts 178°
2026-05-07 19:38 47.45296 -122.31770 371 ft 128 kts 182°
2026-05-07 19:38 47.44630 -122.31792 364 ft 47 kts 182°
2026-05-07 19:38 47.44335 -122.31754 354 ft 41 kts 161°
2026-05-07 19:38 47.44126 -122.31596 359 ft 24 kts 149°
2026-05-07 19:39 47.43989 -122.31477 360 ft 22 kts 149°
2026-05-07 19:39 47.43852 -122.31361 357 ft 22 kts 143°
2026-05-07 19:39 47.43809 -122.31165 359 ft 19 kts 90°
2026-05-07 19:39 47.43813 -122.30980 363 ft 16 kts 88°
2026-05-07 19:40 47.43813 -122.30830 366 ft 13 kts 90°
2026-05-07 19:40 47.43812 -122.30712 368 ft 9 kts 90°
2026-05-07 19:40 47.43812 -122.30645 369 ft 0 kts 90°
2026-05-07 19:42 47.44752 -122.30148 396 ft 0 kts 336°